Meteo Giornale » Osservazioni meteo Italia » Catania-Sigonella

ore: 16:55 - Osservazioni Meteo Catania-Sigonella
Lat. 37° 24' N Lon. 14° 55' E Alt. 22 metri s.l.m.

nuvoloso Europe/Rome

32 °C

Nuvoloso

Temp. 24 Ore

19 °C

32 °C

Est

27.8 Km/h

Dew point 22 °C

Umidità 55 %

Visibilità  10 Km

Il sole sorge alle ore 06:16

Il sole tramonta alle ore 19:52

Data e Ora Cielo e Fenomeni T °C DP °C Um. % Pres. hPa Vis. km Vento km/h
Oggi h: 16:55 nuvoloso Nuvoloso 32 22 55 1012 10 E 27.8
Oggi h: 15:55 nuvoloso Nuvoloso 32 21 52 1012 10 E 20.3
Oggi h: 14:55 nuvoloso Nuvoloso 32 20 49 1012 10 E 16.7
Oggi h: 13:55 nuvoloso Nuvoloso 32 21 52 1012 10 E 18.5
Oggi h: 12:55 nuvoloso Nuvoloso 31 21 55 1013 10 E 11.1
Oggi h: 11:55 nuvoloso Nuvoloso 30 22 62 1013 10 N 5.5
Oggi h: 10:55 nuvoloso Nuvoloso 28 23 74 1013 10 N 3.7
Oggi h: 09:55 poco_nuvoloso Poco Nuvoloso 26 24 88 1013 10 O 7.4
Oggi h: 08:55 nuvoloso Nuvoloso 23 23 100 1013 10 O 9.3
Oggi h: 07:55 nuvoloso Nuvoloso 20 20 100 1012 10 O/NO 7.4
Oggi h: 06:55 nuvoloso Nuvoloso 19 19 100 1012 10 N 3.7
Oggi h: 05:55 poco_nuvoloso Poco Nuvoloso 19 19 100 1012 10 N 1.8
Oggi h: 04:55 poco_nuvoloso Poco Nuvoloso 20 20 100 1011 10 N 3.7
Oggi h: 03:55 poco_nuvoloso Poco Nuvoloso 20 20 100 1011 10 S 7.4
Oggi h: 02:55 poco_nuvoloso Poco Nuvoloso 20 20 100 1012 10 O 7.4
Oggi h: 01:55 poco_nuvoloso Poco Nuvoloso 20 20 100 1012 10 N 3.7
Oggi h: 00:55 poco_nuvoloso Poco Nuvoloso 21 21 100 1012 10 O/NO 16.7
Ieri h: 23:55 poco_nuvoloso Poco Nuvoloso 21 21 100 1012 10 O 14.8
Ieri h: 21:55 nuvoloso Nuvoloso 21 21 100 1013 10 O/SO 11.1
Ieri h: 20:55 molto_nuvoloso Molto Nuvoloso 22 22 100 1013 10 NO 14.8
Ieri h: 19:55 molto_nuvoloso Molto Nuvoloso 22 22 100 1012 10 O 9.3
Ieri h: 18:55 nuvoloso Nuvoloso 22 22 100 1012 10 N 7.4
Ieri h: 17:55 nuvoloso Nuvoloso 22 22 100 1012 10 N 5.5